Hourly Weather Bolshie Verhi

Today, 31 July, Saturday

Time Temperature Precipitation Wind Pressure Humidity
00:00 +19°C° 1 mm 5 mps 734 mmHg 93%
01:00 +19°C° 0 mm 4 mps 734 mmHg 94%
02:00 +19°C° 0 mm 4 mps 734 mmHg 94%
03:00 +19°C° 0 mm 3 mps 734 mmHg 95%
04:00 +19°C° 0 mm 3 mps 734 mmHg 95%
05:00 +19°C° 0 mm 3 mps 734 mmHg 94%
06:00 +20°C° 0 mm 3 mps 735 mmHg 94%
07:00 +21°C° 0 mm 3 mps 735 mmHg 88%
08:00 +22°C° 0 mm 4 mps 735 mmHg 81%
09:00 +25°C° 0 mm 4 mps 736 mmHg 75%
10:00 +26°C° 0.1 mm 4 mps 736 mmHg 69%
11:00 +27°C° 0.1 mm 5 mps 736 mmHg 63%
12:00 +28°C° 0.1 mm 5 mps 737 mmHg 57%
13:00 +28°C° 0 mm 5 mps 737 mmHg 57%
14:00 +27°C° 0 mm 4 mps 737 mmHg 58%
15:00 +27°C° 0 mm 3 mps 737 mmHg 59%
16:00 +27°C° 0 mm 3 mps 737 mmHg 61%
17:00 +27°C° 0 mm 2 mps 737 mmHg 63%
18:00 +26°C° 0 mm 2 mps 737 mmHg 66%
19:00 +25°C° 0 mm 2 mps 737 mmHg 66%
20:00 +25°C° 0 mm 3 mps 738 mmHg 66%
21:00 +24°C° 0 mm 3 mps 738 mmHg 67%
22:00 +22°C° 0 mm 3 mps 738 mmHg 66%
23:00 +23°C° 0 mm 2 mps 738 mmHg 64%

Tomorrow, 1 August, Sunday

Time Temperature Precipitation Wind Pressure Humidity
00:00 +21°C° 0 mm 2 mps 738 mmHg 63%
01:00 +21°C° 0 mm 2 mps 739 mmHg 64%
02:00 +20°C° 0 mm 2 mps 739 mmHg 65%
03:00 +21°C° 0 mm 1 mps 739 mmHg 66%
04:00 +21°C° 0 mm 1 mps 739 mmHg 67%
05:00 +22°C° 0 mm 1 mps 740 mmHg 68%
06:00 +20°C° 0 mm 0 mps 740 mmHg 68%
07:00 +23°C° 0 mm 1 mps 740 mmHg 64%
08:00 +25°C° 0 mm 1 mps 740 mmHg 59%
09:00 +26°C° 0 mm 2 mps 741 mmHg 55%
10:00 +27°C° 0 mm 2 mps 741 mmHg 52%
11:00 +29°C° 0 mm 2 mps 741 mmHg 48%
12:00 +30°C° 0 mm 3 mps 741 mmHg 45%
13:00 +30°C° 0 mm 3 mps 741 mmHg 43%
14:00 +30°C° 0 mm 3 mps 741 mmHg 42%
15:00 +31°C° 0 mm 3 mps 740 mmHg 40%
16:00 +30°C° 0 mm 2 mps 740 mmHg 44%
17:00 +30°C° 0 mm 1 mps 740 mmHg 48%
18:00 +28°C° 0 mm 0 mps 740 mmHg 52%
19:00 +28°C° 0 mm 1 mps 740 mmHg 54%
20:00 +26°C° 0 mm 1 mps 740 mmHg 55%
21:00 +24°C° 0 mm 2 mps 740 mmHg 57%
22:00 +24°C° 0 mm 2 mps 740 mmHg 59%
23:00 +22°C° 0 mm 3 mps 740 mmHg 60%

Day after tomorrow, 2 August, Monday

Time Temperature Precipitation Wind Pressure Humidity
00:00 +22°C° 0 mm 3 mps 740 mmHg 62%
01:00 +22°C° 0 mm 3 mps 740 mmHg 63%
02:00 +21°C° 0 mm 3 mps 740 mmHg 64%
03:00 +21°C° 0 mm 3 mps 740 mmHg 64%
04:00 +21°C° 0 mm 3 mps 740 mmHg 66%
05:00 +21°C° 0 mm 3 mps 741 mmHg 67%
06:00 +23°C° 0 mm 2 mps 741 mmHg 68%
07:00 +25°C° 0 mm 2 mps 741 mmHg 63%
08:00 +27°C° 0 mm 2 mps 741 mmHg 58%
09:00 +29°C° 0 mm 2 mps 741 mmHg 52%
10:00 +30°C° 0 mm 2 mps 741 mmHg 49%
11:00 +31°C° 0 mm 2 mps 740 mmHg 45%
12:00 +34°C° 0 mm 3 mps 740 mmHg 41%
13:00 +35°C° 0 mm 3 mps 740 mmHg 38%
14:00 +35°C° 0 mm 3 mps 739 mmHg 35%
15:00 +36°C° 0 mm 2 mps 739 mmHg 31%
16:00 +35°C° 0 mm 2 mps 739 mmHg 36%
17:00 +34°C° 0 mm 2 mps 738 mmHg 41%
18:00 +32°C° 0 mm 1 mps 738 mmHg 46%
19:00 +31°C° 0 mm 1 mps 738 mmHg 47%
20:00 +29°C° 0 mm 2 mps 738 mmHg 49%
21:00 +28°C° 0 mm 2 mps 737 mmHg 50%
22:00 +27°C° 0 mm 2 mps 737 mmHg 51%
23:00 +26°C° 0 mm 3 mps 737 mmHg 51%

3 August, Tuesday

Time Temperature Precipitation Wind Pressure Humidity
00:00 +26°C° 0 mm 3 mps 737 mmHg 52%
01:00 +25°C° 0 mm 3 mps 737 mmHg 52%
02:00 +25°C° 0 mm 3 mps 737 mmHg 52%
03:00 +24°C° 0 mm 3 mps 737 mmHg 52%
04:00 +24°C° 0 mm 3 mps 737 mmHg 54%
05:00 +24°C° 0 mm 3 mps 737 mmHg 57%
06:00 +24°C° 0 mm 2 mps 737 mmHg 59%
07:00 +25°C° 0 mm 3 mps 737 mmHg 57%
08:00 +27°C° 0 mm 4 mps 737 mmHg 55%
09:00 +28°C° 0 mm 4 mps 737 mmHg 52%
10:00 +28°C° 0.1 mm 4 mps 738 mmHg 54%
11:00 +28°C° 0.1 mm 4 mps 738 mmHg 56%
12:00 +28°C° 0.1 mm 5 mps 738 mmHg 58%
13:00 +27°C° 0.1 mm 4 mps 738 mmHg 59%
14:00 +26°C° 0.1 mm 4 mps 738 mmHg 61%
15:00 +26°C° 0.1 mm 4 mps 738 mmHg 63%
16:00 +26°C° 0 mm 3 mps 737 mmHg 62%
17:00 +27°C° 0 mm 3 mps 737 mmHg 61%
18:00 +27°C° 0 mm 3 mps 737 mmHg 60%
19:00 +26°C° 0.6 mm 3 mps 737 mmHg 66%
20:00 +23°C° 0.6 mm 4 mps 738 mmHg 73%
21:00 +21°C° 0.6 mm 5 mps 739 mmHg 79%
22:00 +20°C° 0.3 mm 4 mps 739 mmHg 83%
23:00 +19°C° 0.3 mm 3 mps 739 mmHg 86%

4 August, Wednesday

Time Temperature Precipitation Wind Pressure Humidity
00:00 +18°C° 0.3 mm 3 mps 738 mmHg 89%
01:00 +18°C° 0.5 mm 2 mps 739 mmHg 90%
02:00 +19°C° 0.5 mm 1 mps 739 mmHg 91%
03:00 +19°C° 0.5 mm 1 mps 739 mmHg 92%
04:00 +19°C° 0 mm 1 mps 740 mmHg 92%
05:00 +18°C° 0 mm 2 mps 740 mmHg 92%
06:00 +18°C° 0 mm 3 mps 740 mmHg 92%
07:00 +19°C° 0 mm 3 mps 740 mmHg 85%
08:00 +20°C° 0 mm 3 mps 740 mmHg 79%
09:00 +21°C° 0 mm 4 mps 740 mmHg 72%
10:00 +22°C° 0 mm 4 mps 741 mmHg 65%
11:00 +25°C° 0 mm 4 mps 741 mmHg 57%
12:00 +26°C° 0 mm 4 mps 741 mmHg 50%
13:00 +26°C° 0 mm 4 mps 741 mmHg 51%
14:00 +26°C° 0 mm 3 mps 741 mmHg 52%
15:00 +25°C° 0 mm 3 mps 741 mmHg 53%
16:00 +25°C° 0 mm 3 mps 741 mmHg 53%
17:00 +25°C° 0 mm 2 mps 741 mmHg 53%
18:00 +25°C° 0 mm 2 mps 741 mmHg 54%
19:00 +24°C° 0 mm 2 mps 742 mmHg 55%
20:00 +23°C° 0 mm 2 mps 742 mmHg 56%
21:00 +21°C° 0 mm 2 mps 742 mmHg 58%
22:00 +20°C° 0 mm 2 mps 742 mmHg 59%
23:00 +20°C° 0 mm 2 mps 742 mmHg 61%

5 August, Thursday

Time Temperature Precipitation Wind Pressure Humidity
00:00 +19°C° 0 mm 2 mps 742 mmHg 63%
01:00 +18°C° 0 mm 2 mps 743 mmHg 66%
02:00 +17°C° 0 mm 2 mps 743 mmHg 69%
03:00 +17°C° 0 mm 2 mps 743 mmHg 72%
04:00 +17°C° 0 mm 2 mps 743 mmHg 71%
05:00 +17°C° 0 mm 2 mps 743 mmHg 71%
06:00 +18°C° 0 mm 2 mps 743 mmHg 71%
07:00 +19°C° 0 mm 2 mps 744 mmHg 68%
08:00 +20°C° 0 mm 2 mps 744 mmHg 65%
09:00 +20°C° 0 mm 2 mps 744 mmHg 62%
10:00 +21°C° 0 mm 2 mps 744 mmHg 59%
11:00 +23°C° 0 mm 2 mps 744 mmHg 56%
12:00 +24°C° 0 mm 2 mps 744 mmHg 53%
13:00 +24°C° 0 mm 2 mps 744 mmHg 50%
14:00 +25°C° 0 mm 2 mps 744 mmHg 46%
15:00 +26°C° 0 mm 2 mps 744 mmHg 43%
16:00 +25°C° 0 mm 2 mps 744 mmHg 46%
17:00 +25°C° 0 mm 2 mps 744 mmHg 50%
18:00 +24°C° 0 mm 2 mps 744 mmHg 53%
19:00 +23°C° 0 mm 2 mps 744 mmHg 55%
20:00 +20°C° 0 mm 2 mps 744 mmHg 56%
21:00 +19°C° 0 mm 2 mps 744 mmHg 57%
22:00 +18°C° 0 mm 2 mps 744 mmHg 57%
23:00 +17°C° 0 mm 2 mps 744 mmHg 56%
Show more

We Need Your Consent

Meteoprog and our Service Providers may store and access personal data such as cookies, device identifiers or other similar technologies on your device and process such data to personalise content and ads, as well as provide social media features and to analyse the traffic.

  • Store and/or access information on your device

    Cookies, device identifiers or other information can be stored or accessed on your device for the purposes indicated above.

  • Personalised ads and content, ad and content measurement, audience insights, and products development

    Ads and content can be personalised based on a profile. More data can be added to better personalise ads and content. Ad and content performance can be measured. Insights about the audience who saw the ads and content can be derived. Such data can be used to develop or improve user’s experience, systems and software.

By clicking ‘I Agree’ you will allow the use of indicated cookies, device identifiers, web beacons or other similar technologies. Your settings can be changed in the browser on your device.

For certain purposes, legitimate interests may be relied on, rather than consent. You can read more about this in our Privacy and Cookie Policy.